Robinson, IL

9:06 PM CST on November 20, 2017 (GMT -0600)
Robinson Municipal

Weather History for KRSV - January, 2013

Change the Weather History Date:

Saturday, January 19, 2013

  Actual Average (KLWV) Record (KLWV)
Temperature  
Mean Temperature 47 °F -  
Max Temperature 55 °F 35 °F 63 °F (2006)
Min Temperature 39 °F 20 °F 3 °F (2003)
Degree Days  
Heating Degree Days 18    
Moisture  
Dew Point 32 °F    
Average Humidity 58    
Maximum Humidity 72    
Minimum Humidity 44    
Precipitation  
Precipitation 0.00 in - - ()
Sea Level Pressure  
Sea Level Pressure 30.06 in    
Wind  
Wind Speed 17 mph (SSW)    
Max Wind Speed 25 mph    
Max Gust Speed 33 mph    
Visibility 10 miles    
Events      
Averages and records for this station are not official NWS values.
T = Trace of Precipitation, MM = Missing Value Source: NWS Daily Summary

Daily Weather History Graph

Daily Weather History Graph

Search for Another Location

Airport or City:

Trip Planner

Search our weather history database for the weather conditions in past years. The results will help you decide how hot, cold, wet, or windy it might be!

Date:

Astronomy

Jan. 19, 2013 Rise Set
Actual Time 7:06 AM CST 4:57 PM CST
Civil Twilight 6:37 AM CST 5:26 PM CST
Nautical Twilight 6:04 AM CST 5:58 PM CST
Astronomical Twilight 5:32 AM CST 6:30 PM CST
Moon 11:22 AM CST (1/19) 12:40 AM CST (1/19)
Length of Visible Light 10h 49m
Length of Day
9h 51m
First Quarter, 57% of the Moon is Illuminated
Jan 19
First Quarter
Jan 26
Full
Feb 3
Last Quarter
Feb 10
New
Feb 17
First Quarter

Hourly Weather History & Observations

Time (CST) Temp. Windchill Dew Point Humidity Pressure Visibility Wind Dir Wind Speed Gust Speed Precip Events Conditions
12:15 AM 41.4 °F 32.7 °F 26.4 °F 55% 30.19 in 10.0 mi South 18.4 mph 23.0 mph N/A   Clear
12:35 AM 41.0 °F 32.2 °F 26.6 °F 57% 30.19 in 10.0 mi South 18.4 mph 25.3 mph N/A   Clear
12:55 AM 41.0 °F 32.5 °F 26.6 °F 57% 30.19 in 10.0 mi South 17.3 mph 24.2 mph N/A   Clear
1:15 AM 40.5 °F 32.5 °F 26.6 °F 58% 30.20 in 10.0 mi SSW 15.0 mph 20.7 mph N/A   Clear
1:35 AM 40.3 °F 31.9 °F 26.8 °F 59% 30.20 in 10.0 mi SSW 16.1 mph - N/A   Clear
1:55 AM 40.3 °F 32.6 °F 27.0 °F 59% 30.20 in 10.0 mi SSW 13.8 mph - N/A   Clear
2:15 AM 40.3 °F 32.6 °F 27.1 °F 59% 30.20 in 10.0 mi SSW 13.8 mph - N/A   Clear
2:35 AM 40.1 °F 32.4 °F 27.1 °F 60% 30.19 in 10.0 mi South 13.8 mph - N/A   Clear
2:55 AM 40.6 °F 33.0 °F 26.8 °F 58% 30.19 in 10.0 mi South 13.8 mph 19.6 mph N/A   Clear
3:15 AM 40.1 °F 32.7 °F 27.1 °F 60% 30.19 in 10.0 mi South 12.7 mph - N/A   Clear
3:35 AM 40.1 °F 32.4 °F 27.0 °F 59% 30.18 in 10.0 mi South 13.8 mph - N/A   Clear
3:55 AM 40.1 °F 32.7 °F 27.0 °F 59% 30.17 in 10.0 mi South 12.7 mph 19.6 mph N/A   Clear
4:15 AM 39.6 °F 31.3 °F 27.1 °F 61% 30.17 in 10.0 mi South 15.0 mph - N/A   Clear
4:35 AM 39.4 °F 31.4 °F 27.3 °F 62% 30.17 in 10.0 mi South 13.8 mph - N/A   Clear
4:55 AM 39.4 °F 31.1 °F 27.5 °F 62% 30.16 in 10.0 mi South 15.0 mph - N/A   Clear
5:15 AM 39.7 °F 31.9 °F 27.9 °F 63% 30.16 in 10.0 mi South 13.8 mph 20.7 mph N/A   Clear
5:35 AM 39.6 °F 31.3 °F 28.2 °F 64% 30.15 in 10.0 mi South 15.0 mph 19.6 mph N/A   Clear
7:15 AM 41.0 °F 31.9 °F 27.9 °F 60% 30.14 in 10.0 mi South 19.6 mph 29.9 mph N/A   Clear
7:55 AM 41.7 °F 32.9 °F 27.7 °F 58% 30.13 in 10.0 mi South 19.6 mph 29.9 mph N/A   Clear
8:15 AM 42.6 °F 33.5 °F 28.0 °F 56% 30.13 in 10.0 mi South 21.9 mph - N/A   Clear
8:35 AM 43.7 °F 34.7 °F 28.4 °F 55% 30.13 in 10.0 mi South 23.0 mph 28.8 mph N/A   Clear
9:35 AM 46.0 °F 38.5 °F 30.6 °F 55% 30.12 in 10.0 mi South 19.6 mph 29.9 mph N/A   Clear
9:55 AM 47.3 °F - 30.6 °F 52% 30.12 in 10.0 mi South 20.7 mph 29.9 mph N/A   Clear
10:15 AM 48.4 °F - 31.5 °F 52% 30.11 in 10.0 mi SSW 18.4 mph 24.2 mph N/A   Clear
10:35 AM 49.1 °F - 31.8 °F 51% 30.10 in 10.0 mi South 21.9 mph 27.6 mph N/A   Clear
10:55 AM 49.5 °F - 31.6 °F 50% 30.09 in 10.0 mi South 18.4 mph 27.6 mph N/A   Clear
11:15 AM 50.5 °F - 32.0 °F 49% 30.07 in 10.0 mi South 20.7 mph - N/A   Clear
11:55 AM 51.8 °F - 32.0 °F 47% 30.03 in 10.0 mi South 25.3 mph 33.4 mph N/A   Clear
12:15 PM 52.7 °F - 32.7 °F 47% 30.02 in 10.0 mi South 21.9 mph 29.9 mph N/A   Clear
12:35 PM 53.6 °F - 32.9 °F 45% 30.01 in 10.0 mi South 21.9 mph 28.8 mph N/A   Clear
12:55 PM 54.0 °F - 33.3 °F 46% 30.01 in 10.0 mi South 19.6 mph 25.3 mph N/A   Clear
1:55 PM 54.9 °F - 33.6 °F 45% 29.97 in 10.0 mi South 23.0 mph 28.8 mph N/A   Clear
2:15 PM 55.4 °F - 33.8 °F 44% 29.96 in 10.0 mi South 23.0 mph 28.8 mph N/A   Clear
2:35 PM 55.8 °F - 34.0 °F 44% 29.95 in 10.0 mi South 23.0 mph 27.6 mph N/A   Clear
2:55 PM 55.8 °F - 34.5 °F 45% 29.94 in 10.0 mi South 23.0 mph 28.8 mph N/A   Clear
3:15 PM 55.8 °F - 34.2 °F 44% 29.95 in 10.0 mi South 20.7 mph - N/A   Clear
3:35 PM 55.2 °F - 35.1 °F 47% 29.95 in 10.0 mi South 19.6 mph 24.2 mph N/A   Clear
3:55 PM 54.3 °F - 35.4 °F 49% 29.95 in 10.0 mi SSW 17.3 mph 23.0 mph N/A   Clear
4:15 PM 53.4 °F - 35.2 °F 50% 29.96 in 10.0 mi SSW 21.9 mph 28.8 mph N/A   Clear
4:35 PM 53.1 °F - 35.2 °F 51% 29.95 in 10.0 mi South 16.1 mph - N/A   Clear
4:55 PM 52.0 °F - 35.2 °F 53% 29.96 in 10.0 mi SSW 16.1 mph 23.0 mph N/A   Clear
5:15 PM 50.9 °F - 35.4 °F 55% 29.96 in 10.0 mi SSW 10.4 mph 18.4 mph N/A   Clear
5:35 PM 50.2 °F - 35.6 °F 57% 29.96 in 10.0 mi South 13.8 mph 19.6 mph N/A   Clear
5:55 PM 50.2 °F - 35.6 °F 57% 29.96 in 10.0 mi South 13.8 mph - N/A   Clear
6:15 PM 50.2 °F - 36.0 °F 58% 29.97 in 10.0 mi South 15.0 mph 21.9 mph N/A   Clear
6:35 PM 49.6 °F - 36.1 °F 60% 29.97 in 10.0 mi South 13.8 mph - N/A   Clear
6:55 PM 49.5 °F - 36.5 °F 61% 29.97 in 10.0 mi South 19.6 mph 24.2 mph N/A   Clear
7:15 PM 49.3 °F - 36.9 °F 62% 29.98 in 10.0 mi SSW 19.6 mph 26.5 mph N/A   Clear
7:35 PM 48.7 °F - 37.4 °F 65% 29.99 in 10.0 mi SSW 19.6 mph 25.3 mph N/A   Clear
7:55 PM 48.6 °F - 37.8 °F 66% 30.00 in 10.0 mi SSW 18.4 mph 25.3 mph N/A   Clear
8:15 PM 48.4 °F - 38.1 °F 68% 30.01 in 10.0 mi SSW 17.3 mph 24.2 mph N/A   Clear
8:35 PM 48.4 °F - 38.3 °F 68% 30.01 in 10.0 mi SW 15.0 mph - N/A   Clear
8:55 PM 48.0 °F - 38.3 °F 69% 30.02 in 10.0 mi SW 12.7 mph - N/A   Clear
9:15 PM 47.7 °F - 38.3 °F 70% 30.02 in 10.0 mi SW 15.0 mph 19.6 mph N/A   Clear
9:35 PM 47.3 °F - 38.1 °F 70% 30.02 in 10.0 mi SW 15.0 mph - N/A   Clear
9:55 PM 46.4 °F 40.1 °F 37.9 °F 72% 30.02 in 10.0 mi SW 15.0 mph - N/A   Clear
10:15 PM 46.4 °F 40.1 °F 37.8 °F 72% 30.03 in 10.0 mi SW 15.0 mph - N/A   Clear
10:35 PM 46.0 °F 39.9 °F 37.4 °F 72% 30.03 in 10.0 mi SW 13.8 mph - N/A   Clear
10:55 PM 46.2 °F 40.5 °F 36.7 °F 69% 30.04 in 10.0 mi SW 12.7 mph - N/A   Clear
11:15 PM 45.7 °F 40.2 °F 36.1 °F 69% 30.04 in 10.0 mi SW 11.5 mph - N/A   Clear
11:35 PM 45.5 °F 39.9 °F 35.4 °F 68% 30.04 in 10.0 mi SW 11.5 mph - N/A   Clear
11:55 PM 45.7 °F 39.8 °F 34.9 °F 66% 30.05 in 10.0 mi WSW 12.7 mph - N/A   Clear